Location: Krasnoyarskiy Pitomnik
(51.1333°N, 71.6167°E)
Time: 20:24:26
(UTC+00:00)

Envisat - Visible Passes

Search period start: 28 February 2024 00:00
Search period end: 09 March 2024 00:00
Orbit: 762 x 764 km, 98.3° (Epoch: 28 February)

Date Brightness Start Highest point End Pass type
(mag) Time Alt. Az. Time Alt. Az. Time Alt. Az.
28 Feb 5.2 21:40:36 10° NE 21:43:20 21° ENE 21:43:20 21° ENE visible
28 Feb 3.1 23:18:56 10° N 23:23:31 58° NW 23:23:31 58° NW visible
29 Feb 4.8 00:59:54 10° NNW 01:01:57 12° NW 01:03:41 11° WNW visible
29 Feb 5.9 21:05:23 10° ENE 21:05:45 10° ENE 21:05:45 10° ENE visible
29 Feb 3.4 22:41:35 10° NNE 22:45:55 59° NE 22:45:55 59° NE visible
01 Mar 4.2 00:21:22 10° N 00:25:11 22° WNW 00:26:05 21° WNW visible
01 Mar 4.5 22:04:33 10° NNE 22:08:19 33° ENE 22:08:19 33° ENE visible
01 Mar 3.4 23:43:31 10° N 23:48:14 39° WNW 23:48:30 39° WNW visible
02 Mar 5.4 21:28:05 10° NE 21:30:44 17° ENE 21:30:44 17° ENE visible
02 Mar 2.9 23:05:59 10° NNE 23:10:54 75° NW 23:10:54 75° NW visible
03 Mar 4.7 00:46:26 10° NNW 00:49:15 15° NW 00:51:04 13° WNW visible
03 Mar 3.6 22:28:44 10° NNE 22:33:18 53° E 22:33:18 53° E visible
04 Mar 4.0 00:08:14 10° N 00:12:25 27° WNW 00:13:29 25° W visible
04 Mar 4.7 21:51:50 10° NE 21:55:43 27° E 21:55:43 27° E visible
04 Mar 3.2 23:30:30 10° N 23:35:24 49° WNW 23:35:53 47° W visible
05 Mar 5.0 01:12:36 10° NW 01:13:15 10° NW 01:13:53 10° NW visible
05 Mar 5.6 21:15:47 10° NE 21:18:07 14° E 21:18:07 14° E visible
05 Mar 2.9 22:53:03 10° NNE 22:58:11 86° ESE 22:58:18 85° SSE visible
06 Mar 4.5 00:33:07 10° NNW 00:36:32 18° NW 00:38:28 15° W visible
06 Mar 3.9 22:15:55 10° NNE 22:20:42 43° E 22:20:42 43° E visible
06 Mar 3.8 23:55:08 10° N 23:59:38 32° WNW 00:00:52 29° W visible
07 Mar 5.0 21:39:12 10° NE 21:43:06 22° E 21:43:06 22° E visible
07 Mar 3.0 23:17:31 10° N 23:22:32 62° WNW 23:23:17 55° WSW visible
08 Mar 4.9 00:58:27 10° NNW 01:00:33 13° NW 01:02:39 10° WNW visible
08 Mar 5.7 21:04:04 10° ENE 21:05:18 11° E 21:05:31 11° E visible
08 Mar 3.1 22:40:10 10° NNE 22:45:15 69° ESE 22:45:41 65° SE visible
